[[{"header":{"parameterUnit":"m.s-1","parameterCategory":1,"la1":30.2991,"la2":30.254,"lo1":-89.0895,"lo2":-89.0444,"dy":0.0017,"dx":0.0017,"nx":28,"ny":28,"refTime":"2024-09-24T21:00:00:Z","depth":0,"parameterNumber":2,"parameterNumberName":"U-component_of_WINDS"},"data":[0,0,0,0,0,0,0,0,0,0,0,0,0,0,0,0,0,0,0,0,0,0,0,0,0,0,0,0,0,0,0,0,0,0,0,0,0,0,0,0,0,0,0,0,0,0,0,0,0,0,0,0,0,0,0,0,0,0,-2.4339,-2.4339,0,-2.4369,-2.4369,-2.437,-2.4322,-2.432,-2.4319,-2.4317,-2.4346,-2.4348,-2.435,0,0,0,0,0,0,0,0,0,0,0,0,0,-2.4239,-2.4241,-2.4339,-2.4339,-2.434,-2.4369,-2.4369,-2.437,-2.4322,-2.432,-2.4318,-2.4316,-2.4345,-2.4348,-2.435,0,0,0,0,0,0,0,0,0,0,0,0,0,-2.4277,-2.4241,-2.4339,-2.432,-2.4318,-2.4369,-2.4369,-2.437,-2.4323,-2.432,-2.4318,-2.4316,-2.4344,-2.4347,-2.4351,-2.4421,0,0,-2.4361,-2.4363,0,0,0,0,0,0,0,0,-2.4275,-2.428,-2.4322,-2.4321,-2.4319,-2.4339,-2.4344,-2.4387,-2.4323,-2.4321,-2.4317,-2.4314,-2.4345,-2.4349,-2.4359,-2.4422,-2.4423,-2.4361,-2.4364,-2.4365,-2.4366,0,0,0,0,0,0,0,-2.4272,-2.4279,-2.4351,-2.4323,-2.4321,-2.4309,-2.4312,-2.4352,-2.4346,-2.4321,-2.4318,-2.4322,-2.4344,-2.4356,-2.436,-2.4424,-2.4361,-2.4364,-2.4367,-2.4368,-2.4546,-2.4548,0,0,0,0,0,0,-2.4272,-2.4277,-2.435,-2.4352,-2.4291,-2.4313,-2.4316,-2.4335,-2.4346,-2.4345,-2.4324,-2.432,-2.4352,-2.4356,-2.4361,-2.4443,-2.4365,-2.4368,-2.437,-2.4543,-2.4546,-2.4549,0,0,0,0,0,0,-2.427,-2.4279,-2.4348,-2.4313,-2.4321,-2.4317,-2.4339,-2.4337,-2.4349,-2.4348,-2.4347,-2.4337,-2.435,-2.4356,-2.4406,-2.4443,-2.437,-2.4373,-2.454,-2.4544,-2.4548,-2.4608,0,0,0,0,0,0,-2.4267,-2.4279,-2.4305,-2.4314,-2.4323,-2.4394,-2.4342,-2.434,-2.4356,-2.435,-2.436,-2.436,-2.4348,-2.4402,-2.441,-2.4446,-2.4376,-2.4536,-2.4542,-2.4546,-2.4603,-2.4614,-2.4623,0,0,0,0,0,-2.4264,-2.4321,-2.4307,-2.4316,-2.4357,-2.4397,-2.4402,-2.4388,-2.4359,-2.4385,-2.4385,-2.4359,-2.4438,-2.4407,-2.4416,-2.4454,-2.4534,-2.454,-2.4546,-2.4598,-2.4612,-2.4623,0,0,0,0,0,0,-2.4315,-2.4321,-2.4306,-2.4368,-2.4382,-2.4388,-2.4421,-2.4403,-2.4425,-2.4418,-2.44,-2.4403,-2.4457,-2.4461,-2.4426,-2.4523,-2.4481,-2.4489,-2.4518,-2.453,-2.454,-2.4537,-2.4378,0,0,0,0,0,-2.4334,-2.4366,-2.437,-2.4423,-2.4432,-2.4426,-2.4442,-2.4431,-2.4445,-2.445,-2.4453,-2.4467,-2.4495,-2.4513,-2.4539,-2.4604,-2.4605,-2.4635,-2.4645,-2.4653,-2.466,-2.4694,-2.4707,-2.4569,-2.4569,-2.4569,0,0,-2.4372,-2.4379,-2.4401,-2.4434,-2.4444,-2.4477,-2.4431,-2.4468,-2.4492,-2.4455,-2.4503,-2.4506,-2.452,-2.4579,-2.4604,-2.4583,-2.4699,-2.4661,-2.4668,-2.4669,-2.4702,-2.4715,-2.4726,-2.4573,-2.4572,-2.4571,0,0,-2.4458,-2.4468,-2.4513,-2.4524,-2.454,-2.4536,-2.4547,-2.4557,-2.4558,-2.4606,-2.4579,-2.4608,-2.4656,-2.4667,-2.4679,-2.4772,-2.4749,-2.4781,-2.4833,-2.4866,-2.4877,-2.4887,-2.4919,-2.493,-2.4788,-2.4788,-2.4788,0,-2.4503,-2.4552,-2.4539,-2.4578,-2.4593,-2.4563,-2.4609,-2.462,-2.4644,-2.4654,-2.4631,-2.4692,-2.4699,-2.4759,-2.4782,-2.4793,-2.4805,-2.4778,-2.4877,-2.4886,-2.4895,-2.4925,-2.4937,-2.4792,-2.4791,-2.4791,-2.479,0,-2.4606,-2.4641,-2.4676,-2.47,-2.472,-2.4762,-2.4755,-2.4776,-2.4764,-2.4762,-2.4811,-2.482,-2.4846,-2.486,-2.4848,-2.4919,-2.4905,-2.488,-2.4837,-2.4912,-2.494,-2.4951,-2.4797,-2.4796,-2.4794,-2.4794,0,0,-2.4722,-2.474,-2.4753,-2.4764,-2.478,-2.4806,-2.4848,-2.4875,-2.4893,-2.4911,-2.4944,-2.4986,-2.4964,-2.4977,-2.4966,-2.4996,-2.5068,-2.4967,-2.4967,-2.4984,-2.5145,-2.5162,-2.5176,-2.5054,-2.5056,-2.5058,-2.5143,0,-2.4807,-2.4879,-2.4869,-2.4937,-2.4969,-2.4942,-2.4978,-2.4991,-2.4992,-2.5018,-2.5018,-2.5048,-2.5016,-2.5024,-2.5053,-2.5053,-2.5099,-2.5047,-2.5083,-2.5085,-2.5078,-2.5191,-2.5209,-2.5289,-2.5154,-2.5156,-2.5158,0,-2.4915,-2.4937,-2.5009,-2.5021,-2.5034,-2.5066,-2.509,-2.5117,-2.5132,-2.513,-2.5146,-2.513,-2.5171,-2.513,-2.5185,-2.515,-2.5164,-2.5167,-2.517,-2.517,-2.5124,-2.5193,-2.5315,-2.5326,-2.5175,-2.5174,-2.5172,0,-2.499,-2.5039,-2.5088,-2.5098,-2.5114,-2.5137,-2.5145,-2.5157,-2.5175,-2.5196,-2.5207,-2.5233,-2.5246,-2.5266,-2.5257,-2.5229,-2.5314,-2.5272,-2.5312,-2.5313,-2.5329,-2.5328,-2.5453,-2.5343,-2.5342,-2.5342,-2.5342,0,-2.5084,-2.5129,-2.5122,-2.5152,-2.5202,-2.519,-2.5239,-2.5243,-2.5255,-2.5285,-2.5264,-2.5293,-2.528,-2.5308,-2.5302,-2.5348,-2.5355,-2.5353,-2.5351,-2.5354,-2.5354,-2.5361,-2.5355,-2.5345,-2.5345,-2.5344,-2.5344,0,-2.5176,-2.5174,-2.5225,-2.5237,-2.5241,-2.5276,-2.5285,-2.5313,-2.5313,-2.5351,-2.5359,-2.5358,-2.539,-2.5384,-2.5418,-2.5414,-2.5471,-2.5463,-2.5466,-2.5464,-2.5503,-2.5499,-2.5636,-2.5653,-2.5533,-2.5535,-2.5536,0,-2.5235,-2.5269,-2.5284,-2.5304,-2.5313,-2.5344,-2.5362,-2.5353,-2.5372,-2.5392,-2.5418,-2.5448,-2.5471,-2.5522,-2.5524,-2.555,-2.5541,-2.5587,-2.5545,-2.5547,-2.554,-2.5537,-2.554,-2.5595,-2.5596,-2.5597,-2.5598,0,-2.534,-2.5337,-2.5364,-2.5391,-2.5413,-2.5434,-2.5452,-2.5469,-2.5461,-2.5484,-2.5517,-2.5535,-2.5571,-2.56,-2.5625,-2.5632,-2.5614,-2.5612,-2.5623,-2.5625,-2.5625,-2.5624,-2.5487,-2.5608,-2.5607,-2.5607,-2.5606,-2.5606,-2.5415,-2.5444,-2.546,-2.5491,-2.5504,-2.5522,-2.5549,-2.5553,-2.558,-2.5609,-2.5602,-2.5639,-2.5653,-2.5685,-2.5695,-2.5723,-2.5706,-2.5721,-2.5725,-2.5728,-2.5732,-2.5623,-2.5728,-2.5728,-2.5727,-2.5727,-2.5727,0,-2.5517,-2.5526,-2.5555,-2.5582,-2.5607,-2.559,-2.5609,-2.563,-2.5663,-2.5679,-2.5703,-2.5741,-2.577,-2.5775,-2.5802,-2.5824,-2.5816,-2.5831,-2.5828,-2.583,-2.5747,-2.5734,-2.5837,-2.5837,-2.5837,-2.5837,-2.5837,-2.5837,-2.5573,-2.562,-2.562,-2.5674,-2.5683,-2.572,-2.5732,-2.5749,-2.5761,-2.5804,-2.5829,-2.5833,-2.5844,-2.5873,-2.5898,-2.5899,-2.5909,-2.5927,-2.5925,-2.5847,-2.5836,-2.5825,-2.5813,-2.593,-2.593,-2.6005,-2.6005,-2.6006]},{"header":{"parameterUnit":"m.s-1","parameterCategory":1,"la1":30.2991,"la2":30.254,"lo1":-89.0895,"lo2":-89.0444,"dy":0.0017,"dx":0.0017,"nx":28,"ny":28,"refTime":"2024-09-24T21:00:00:Z","depth":0,"parameterNumber":3,"parameterNumberName":"V-component_of_WINDS"},"data":[0,0,0,0,0,0,0,0,0,0,0,0,0,0,0,0,0,0,0,0,0,0,0,0,0,0,0,0,0,0,0,0,0,0,0,0,0,0,0,0,0,0,0,0,0,0,0,0,0,0,0,0,0,0,0,0,0,0,0.0523,0.0523,0,0.0496,0.0496,0.0496,0.0527,0.0528,0.053,0.0531,0.0498,0.0496,0.0494,0,0,0,0,0,0,0,0,0,0,0,0,0,0.06,0.0598,0.0523,0.0523,0.0523,0.0496,0.0496,0.0495,0.0527,0.0528,0.053,0.0531,0.0498,0.0496,0.0494,0,0,0,0,0,0,0,0,0,0,0,0,0,0.0569,0.0597,0.0524,0.0535,0.0536,0.0496,0.0496,0.0495,0.0527,0.0528,0.053,0.0532,0.0499,0.0496,0.0493,0.0439,0,0,0.0484,0.0483,0,0,0,0,0,0,0,0,0.057,0.0566,0.0534,0.0535,0.0535,0.0517,0.0511,0.0476,0.0526,0.053,0.0531,0.0533,0.0502,0.0499,0.049,0.0437,0.0436,0.0484,0.0482,0.0481,0.048,0,0,0,0,0,0,0,0.0572,0.0567,0.0513,0.0534,0.0534,0.0541,0.0539,0.0504,0.0506,0.053,0.0532,0.0529,0.0503,0.0493,0.0489,0.0435,0.0484,0.0481,0.048,0.0478,0.0337,0.0335,0,0,0,0,0,0,0.0574,0.0569,0.0513,0.0512,0.0558,0.0538,0.0536,0.0521,0.0507,0.0507,0.0527,0.053,0.0497,0.0493,0.0488,0.0424,0.0481,0.0478,0.0476,0.0339,0.0337,0.0335,0,0,0,0,0,0,0.0575,0.0569,0.0515,0.0541,0.0535,0.0535,0.0518,0.052,0.0509,0.0505,0.0505,0.0517,0.0498,0.0493,0.0451,0.0423,0.0477,0.0474,0.0341,0.0338,0.0336,0.0294,0,0,0,0,0,0,0.0577,0.0569,0.0549,0.054,0.0533,0.0479,0.0517,0.0518,0.0505,0.0508,0.0495,0.0494,0.0499,0.0456,0.0448,0.042,0.0472,0.0344,0.034,0.0337,0.0298,0.029,0.0283,0,0,0,0,0,0.058,0.0537,0.0548,0.0541,0.0508,0.0477,0.0473,0.0481,0.0502,0.0482,0.0479,0.0495,0.0428,0.0451,0.0443,0.0413,0.0346,0.0341,0.0337,0.0301,0.0291,0.0283,0,0,0,0,0,0,0.054,0.0536,0.0548,0.0501,0.049,0.0483,0.0457,0.047,0.0451,0.0455,0.0465,0.0461,0.0417,0.0411,0.0438,0.036,0.039,0.0384,0.0366,0.0356,0.0349,0.0351,0.0469,0,0,0,0,0,0.0527,0.0503,0.05,0.0459,0.0453,0.0456,0.0443,0.045,0.0438,0.0432,0.0427,0.0413,0.0389,0.0372,0.035,0.0298,0.0295,0.0273,0.0266,0.026,0.0254,0.0226,0.0216,0.032,0.032,0.032,0,0,0.0497,0.0492,0.0476,0.0451,0.0443,0.0417,0.0451,0.0422,0.0403,0.0427,0.0389,0.0384,0.0369,0.0322,0.0301,0.0316,0.0225,0.0254,0.025,0.0247,0.022,0.0211,0.0202,0.0317,0.0318,0.0318,0,0,0.043,0.0424,0.039,0.0381,0.0369,0.0372,0.0364,0.0355,0.0353,0.0315,0.0333,0.031,0.0268,0.0257,0.0246,0.0176,0.019,0.0169,0.013,0.0103,0.0094,0.0087,0.0062,0.0053,0.0163,0.0163,0.0163,0,0.0394,0.0358,0.0369,0.034,0.0328,0.0351,0.0316,0.0307,0.0287,0.0278,0.0296,0.0245,0.0236,0.0187,0.0171,0.0161,0.0151,0.017,0.0095,0.0088,0.0081,0.0057,0.0048,0.0161,0.0161,0.0161,0.0161,0,0.0314,0.0288,0.0262,0.0245,0.023,0.0197,0.0204,0.0187,0.0196,0.0197,0.0157,0.0149,0.0125,0.0114,0.0122,0.0066,0.0076,0.0094,0.0124,0.0069,0.0046,0.0037,0.0157,0.0158,0.0159,0.0159,0,0,0.0219,0.0211,0.0201,0.0194,0.0183,0.0163,0.0131,0.011,0.0096,0.0082,0.0055,0.002,0.0037,0.0025,0.0032,0.0008,-0.0047,0.0029,0.0028,0.0014,-0.0109,-0.0124,-0.0134,-0.0037,-0.0039,-0.004,-0.0108,0,0.0152,0.0099,0.011,0.0057,0.0034,0.0056,0.0029,0.0019,0.0019,-0.0002,-0.0003,-0.0028,-0.0003,-0.0011,-0.0033,-0.0036,-0.0072,-0.003,-0.0064,-0.0065,-0.0062,-0.0146,-0.0161,-0.0225,-0.0117,-0.0118,-0.012,0,0.0066,0.0051,-0.0003,-0.0009,-0.0019,-0.0043,-0.0061,-0.0081,-0.0092,-0.0091,-0.0104,-0.0092,-0.0124,-0.0093,-0.0137,-0.0109,-0.0122,-0.0125,-0.0128,-0.0131,-0.0096,-0.0153,-0.0245,-0.0255,-0.0133,-0.0132,-0.0131,0,0.0002,-0.0032,-0.0068,-0.0075,-0.0083,-0.0101,-0.0105,-0.0114,-0.0127,-0.0144,-0.0152,-0.0173,-0.0184,-0.0201,-0.0195,-0.0172,-0.0241,-0.0209,-0.0242,-0.0242,-0.0259,-0.0258,-0.0355,-0.0265,-0.0265,-0.0265,-0.0265,0,-0.0075,-0.011,-0.0097,-0.012,-0.0158,-0.0145,-0.0183,-0.0185,-0.0193,-0.0216,-0.0198,-0.0221,-0.0212,-0.0234,-0.023,-0.0268,-0.0273,-0.0273,-0.0272,-0.0276,-0.0276,-0.0285,-0.0281,-0.0267,-0.0267,-0.0266,-0.0266,0,-0.0154,-0.0147,-0.0186,-0.0189,-0.019,-0.0218,-0.0222,-0.0243,-0.0241,-0.0271,-0.0277,-0.0274,-0.03,-0.0295,-0.0323,-0.032,-0.0368,-0.0361,-0.0364,-0.0363,-0.0396,-0.0393,-0.0504,-0.0518,-0.0418,-0.0419,-0.0419,0,-0.0204,-0.023,-0.0235,-0.0248,-0.0254,-0.0276,-0.0288,-0.0277,-0.0291,-0.0305,-0.0325,-0.0348,-0.0366,-0.0407,-0.0409,-0.043,-0.0424,-0.0461,-0.0428,-0.043,-0.0426,-0.0425,-0.0428,-0.0469,-0.047,-0.0471,-0.0471,0,-0.0294,-0.0289,-0.0307,-0.0324,-0.0339,-0.0352,-0.0364,-0.0376,-0.0366,-0.0383,-0.0407,-0.0421,-0.0448,-0.0472,-0.0492,-0.0497,-0.0484,-0.0482,-0.0491,-0.0495,-0.0496,-0.0497,-0.0383,-0.048,-0.0479,-0.0478,-0.0478,-0.0478,-0.0361,-0.0382,-0.0389,-0.041,-0.0416,-0.0427,-0.0448,-0.0447,-0.0466,-0.0487,-0.0479,-0.0507,-0.0517,-0.0542,-0.055,-0.0572,-0.0559,-0.0572,-0.0575,-0.0579,-0.0583,-0.0491,-0.0576,-0.0576,-0.0575,-0.0575,-0.0575,0,-0.045,-0.0453,-0.0472,-0.0488,-0.0504,-0.0487,-0.0498,-0.0514,-0.0538,-0.0547,-0.0565,-0.0593,-0.0615,-0.0617,-0.0639,-0.0656,-0.0651,-0.0663,-0.0662,-0.0663,-0.0593,-0.0584,-0.0667,-0.0667,-0.0667,-0.0667,-0.0667,-0.0667,-0.0499,-0.0534,-0.053,-0.0568,-0.0571,-0.0597,-0.0605,-0.0615,-0.0622,-0.0654,-0.0672,-0.0672,-0.0679,-0.07,-0.072,-0.0721,-0.073,-0.0745,-0.0743,-0.0678,-0.0668,-0.066,-0.0651,-0.0746,-0.0747,-0.0811,-0.0811,-0.0812]}]]